User: anonymous   Login
Location: Kaiser
(34.0939°N, 117.4889°W)
Time: 02:55:53
(UTC+00:00)
Language:

Cosmos 2082 Rocket - Orbit

View from above orbital plane
View from above orbital plane
View from above satellite
View from above satellite

Ground track
Ground track

The orbit data is extracted from the following two-line orbital elements,

1 20625U 90046B   21015.49241037  .00000261  00000-0  16027-3 0  9991
2 20625  70.9991 283.1340 0016402 278.1031  81.8230 14.14660382582606
Epoch (UTC): 15 January 2021 11:49:04
Eccentricity: 0.0016402
inclination: 70.9991°
perigee height: 831 km
apogee height: 855 km
right ascension of ascending node: 283.1340°
argument of perigee: 278.1031°
revolutions per day: 14.14660382
mean anomaly at epoch: 81.8230°
orbit number at epoch: 58260

The dashed part of the orbit path shows where the satellite is in the earth's shadow,  

DLR